Hourly Weather Sonino

Today, 29 September, Tuesday

Time Temperature Precipitation Wind Pressure Humidity
00:00 +10°C° 0 mm 3 mps 748 mmHg 65%
01:00 +10°C° 0 mm 3 mps 748 mmHg 64%
02:00 +10°C° 0 mm 3 mps 748 mmHg 62%
03:00 +10°C° 0 mm 3 mps 748 mmHg 60%
04:00 +10°C° 0 mm 3 mps 748 mmHg 59%
05:00 +10°C° 0 mm 3 mps 748 mmHg 57%
06:00 +11°C° 0 mm 3 mps 748 mmHg 55%
07:00 +11°C° 0 mm 4 mps 748 mmHg 54%
08:00 +12°C° 0 mm 4 mps 748 mmHg 53%
09:00 +13°C° 0 mm 4 mps 748 mmHg 52%
10:00 +13°C° 0 mm 4 mps 748 mmHg 52%
11:00 +14°C° 0 mm 5 mps 748 mmHg 51%
12:00 +14°C° 0 mm 4 mps 748 mmHg 50%
13:00 +15°C° 0 mm 4 mps 748 mmHg 49%
14:00 +15°C° 0 mm 4 mps 748 mmHg 48%
15:00 +14°C° 0 mm 4 mps 747 mmHg 49%
16:00 +14°C° 0 mm 4 mps 747 mmHg 49%
17:00 +13°C° 0 mm 4 mps 747 mmHg 50%
18:00 +12°C° 0 mm 4 mps 747 mmHg 47%
19:00 +12°C° 0 mm 4 mps 747 mmHg 45%
20:00 +12°C° 0 mm 4 mps 747 mmHg 43%
21:00 +11°C° 0 mm 4 mps 747 mmHg 45%
22:00 +11°C° 0 mm 4 mps 746 mmHg 47%
23:00 +10°C° 0 mm 3 mps 746 mmHg 49%

Tomorrow, 30 September, Wednesday

Time Temperature Precipitation Wind Pressure Humidity
00:00 +10°C° 0 mm 4 mps 746 mmHg 49%
01:00 +8°C° 0 mm 4 mps 746 mmHg 50%
02:00 +8°C° 0 mm 4 mps 746 mmHg 50%
03:00 +8°C° 0 mm 4 mps 746 mmHg 51%
04:00 +8°C° 0 mm 4 mps 746 mmHg 52%
05:00 +7°C° 0 mm 4 mps 746 mmHg 53%
06:00 +8°C° 0 mm 4 mps 746 mmHg 54%
07:00 +10°C° 0 mm 5 mps 746 mmHg 55%
08:00 +12°C° 0 mm 5 mps 746 mmHg 56%
09:00 +13°C° 0 mm 6 mps 746 mmHg 51%
10:00 +15°C° 0 mm 6 mps 746 mmHg 47%
11:00 +17°C° 0 mm 6 mps 746 mmHg 42%
12:00 +17°C° 0 mm 6 mps 746 mmHg 42%
13:00 +17°C° 0 mm 6 mps 746 mmHg 42%
14:00 +19°C° 0 mm 6 mps 745 mmHg 42%
15:00 +16°C° 0 mm 6 mps 745 mmHg 47%
16:00 +15°C° 0 mm 5 mps 745 mmHg 52%
17:00 +14°C° 0 mm 5 mps 745 mmHg 57%
18:00 +14°C° 0 mm 5 mps 745 mmHg 58%
19:00 +13°C° 0 mm 5 mps 746 mmHg 59%
20:00 +13°C° 0 mm 5 mps 746 mmHg 60%
21:00 +12°C° 0 mm 5 mps 746 mmHg 61%
22:00 +12°C° 0 mm 5 mps 746 mmHg 63%
23:00 +11°C° 0 mm 4 mps 746 mmHg 64%

Day after tomorrow, 1 October, Thursday

Time Temperature Precipitation Wind Pressure Humidity
00:00 +11°C° 0 mm 4 mps 746 mmHg 65%
01:00 +11°C° 0 mm 4 mps 746 mmHg 65%
02:00 +10°C° 0 mm 4 mps 746 mmHg 65%
03:00 +10°C° 0 mm 4 mps 746 mmHg 64%
04:00 +10°C° 0 mm 4 mps 746 mmHg 63%
05:00 +10°C° 0 mm 4 mps 746 mmHg 62%
06:00 +10°C° 0 mm 5 mps 746 mmHg 61%
07:00 +12°C° 0 mm 5 mps 746 mmHg 60%
08:00 +12°C° 0 mm 5 mps 746 mmHg 59%
09:00 +14°C° 0 mm 6 mps 746 mmHg 52%
10:00 +15°C° 0 mm 6 mps 747 mmHg 46%
11:00 +17°C° 0 mm 7 mps 747 mmHg 40%
12:00 +17°C° 0 mm 6 mps 747 mmHg 41%
13:00 +17°C° 0 mm 6 mps 746 mmHg 41%
14:00 +17°C° 0 mm 5 mps 746 mmHg 41%
15:00 +16°C° 0 mm 5 mps 746 mmHg 45%
16:00 +15°C° 0 mm 4 mps 746 mmHg 48%
17:00 +13°C° 0 mm 4 mps 746 mmHg 52%
18:00 +13°C° 0 mm 4 mps 746 mmHg 51%
19:00 +13°C° 0 mm 4 mps 747 mmHg 50%
20:00 +12°C° 0 mm 4 mps 747 mmHg 50%
21:00 +12°C° 0 mm 4 mps 747 mmHg 52%
22:00 +12°C° 0 mm 4 mps 747 mmHg 53%
23:00 +12°C° 0 mm 5 mps 747 mmHg 55%

2 October, Friday

Time Temperature Precipitation Wind Pressure Humidity
00:00 +12°C° 0 mm 5 mps 747 mmHg 55%
01:00 +10°C° 0 mm 5 mps 747 mmHg 55%
02:00 +11°C° 0 mm 4 mps 747 mmHg 56%
03:00 +11°C° 0 mm 4 mps 747 mmHg 57%
04:00 +10°C° 0 mm 4 mps 747 mmHg 58%
05:00 +10°C° 0 mm 4 mps 747 mmHg 60%
06:00 +11°C° 0 mm 4 mps 747 mmHg 61%
07:00 +10°C° 0 mm 5 mps 747 mmHg 62%
08:00 +12°C° 0 mm 5 mps 747 mmHg 64%
09:00 +13°C° 0 mm 5 mps 747 mmHg 61%
10:00 +14°C° 0 mm 5 mps 747 mmHg 59%
11:00 +15°C° 0 mm 5 mps 748 mmHg 56%
12:00 +16°C° 0 mm 5 mps 747 mmHg 54%
13:00 +17°C° 0 mm 5 mps 747 mmHg 52%
14:00 +17°C° 0 mm 6 mps 747 mmHg 50%
15:00 +16°C° 0 mm 5 mps 747 mmHg 55%
16:00 +15°C° 0 mm 4 mps 747 mmHg 61%
17:00 +14°C° 0 mm 4 mps 747 mmHg 66%
18:00 +13°C° 0 mm 4 mps 747 mmHg 66%
19:00 +13°C° 0 mm 4 mps 747 mmHg 67%
20:00 +13°C° 0 mm 5 mps 748 mmHg 68%
21:00 +12°C° 0 mm 4 mps 748 mmHg 70%
22:00 +12°C° 0 mm 4 mps 747 mmHg 71%
23:00 +11°C° 0 mm 4 mps 747 mmHg 73%

3 October, Saturday

Time Temperature Precipitation Wind Pressure Humidity
00:00 +11°C° 0 mm 4 mps 747 mmHg 72%
01:00 +11°C° 0 mm 4 mps 747 mmHg 71%
02:00 +11°C° 0 mm 4 mps 747 mmHg 70%
03:00 +10°C° 0 mm 4 mps 747 mmHg 69%
04:00 +10°C° 0 mm 4 mps 747 mmHg 67%
05:00 +10°C° 0 mm 4 mps 747 mmHg 66%
06:00 +10°C° 0 mm 5 mps 747 mmHg 64%
07:00 +10°C° 0 mm 5 mps 747 mmHg 62%
08:00 +12°C° 0 mm 5 mps 747 mmHg 59%
09:00 +13°C° 0 mm 5 mps 747 mmHg 57%
10:00 +14°C° 0 mm 5 mps 747 mmHg 54%
11:00 +15°C° 0 mm 5 mps 747 mmHg 52%
12:00 +15°C° 0 mm 5 mps 747 mmHg 53%
13:00 +16°C° 0 mm 5 mps 747 mmHg 54%
14:00 +16°C° 0 mm 5 mps 747 mmHg 55%
15:00 +14°C° 0.2 mm 4 mps 747 mmHg 63%
16:00 +13°C° 0.2 mm 3 mps 747 mmHg 72%
17:00 +11°C° 0.2 mm 3 mps 747 mmHg 81%
18:00 +12°C° 0.4 mm 2 mps 747 mmHg 83%
19:00 +12°C° 0.4 mm 2 mps 747 mmHg 85%
20:00 +12°C° 0.4 mm 2 mps 747 mmHg 87%
21:00 +12°C° 0.4 mm 2 mps 747 mmHg 88%
22:00 +10°C° 0.4 mm 2 mps 747 mmHg 89%
23:00 +10°C° 0.4 mm 3 mps 747 mmHg 91%

4 October, Sunday

Time Temperature Precipitation Wind Pressure Humidity
00:00 +10°C° 0.2 mm 3 mps 747 mmHg 90%
01:00 +10°C° 0.2 mm 3 mps 747 mmHg 89%
02:00 +10°C° 0.2 mm 4 mps 747 mmHg 88%
03:00 +10°C° 0.3 mm 4 mps 747 mmHg 88%
04:00 +10°C° 0.3 mm 4 mps 747 mmHg 89%
05:00 +10°C° 0.3 mm 4 mps 747 mmHg 90%
06:00 +10°C° 0.1 mm 4 mps 747 mmHg 87%
07:00 +10°C° 0.1 mm 4 mps 747 mmHg 84%
08:00 +10°C° 0.1 mm 4 mps 747 mmHg 81%
09:00 +11°C° 0.1 mm 4 mps 747 mmHg 75%
10:00 +12°C° 0.1 mm 4 mps 747 mmHg 69%
11:00 +13°C° 0.1 mm 4 mps 747 mmHg 64%
12:00 +14°C° 0 mm 4 mps 747 mmHg 62%
13:00 +14°C° 0 mm 4 mps 747 mmHg 60%
14:00 +14°C° 0 mm 3 mps 747 mmHg 57%
15:00 +14°C° 0 mm 3 mps 747 mmHg 59%
16:00 +13°C° 0 mm 3 mps 748 mmHg 61%
17:00 +13°C° 0 mm 2 mps 748 mmHg 63%
18:00 +13°C° 0 mm 2 mps 748 mmHg 66%
19:00 +11°C° 0 mm 3 mps 748 mmHg 68%
20:00 +10°C° 0 mm 3 mps 748 mmHg 71%
21:00 +9°C° 0 mm 3 mps 748 mmHg 74%
22:00 +9°C° 0 mm 3 mps 749 mmHg 76%
23:00 +8°C° 0 mm 3 mps 749 mmHg 78%
Show more